Regional Weather Roundup
Issued by NWS

Home | Current Version | Previous Version | Text Only | Print | Product List | Glossary Off
Versions: 1 2 3 4 5 6 7 8 9 10 11 12 13 14 15 16 17 18 19 20 21 22 23 24 25 26 27 28 29 30 31 32 33 34 35 36 37 38 39 40 41 42 43 44 45 46 47 48 49 50

070
ASUS43 KMPX 261010
RWRMN
WEATHER ROUNDUP FOR MINNESOTA
NATIONAL WEATHER SERVICE TWIN CITIES/CHANHASSEN MN
400 AM CST SUN FEB 26 2017


NOTE: "FAIR" INDICATES FEW OR NO CLOUDS BELOW 12,000 FEET WITH NO
SIGNIFICANT WEATHER AND/OR OBSTRUCTIONS TO VISIBILITY. N/A MEANS
CURRENT SKY AND/OR WEATHER CONDITIONS ARE NOT AVAILABLE.

MNZ060>063-068>070-261100-
   Twin Cities Metro

CITY           SKY/WX    TMP DP  RH WIND       PRES   REMARKS
TWIN CITIES    CLOUDY    25  16  68 SW8       29.75F WCI  16
ST PAUL        CLOUDY    26  18  71 CALM      29.76F
CRYSTAL        CLOUDY    24  15  68 S7        29.73S WCI  16
BLAINE         CLOUDY    27  19  74 SW8       29.72F WCI  18
LAKEVILLE      PTCLDY    23  19  86 SW3       29.74F
EDEN PRAIRIE   CLOUDY    24  17  74 SW10      29.73F WCI  14
SOUTH ST PAUL  CLOUDY    26  18  71 SW6       29.75S WCI  20
LAKE ELMO      MOCLDY    27  19  74 S8        29.74F WCI  18
$$
MNZ001>005-007-008-013>017-022>024-027-028-261100-
   Northwest Minnesota

CITY           SKY/WX    TMP DP  RH WIND       PRES   REMARKS
BEMIDJI        LGT SNOW  16  13  88 N8        29.64S WCI   5
HALLOCK        CLEAR      7   1  78 N3        29.75S
ROSEAU         CLOUDY    10   5  79 NW3       29.72S
WARROAD        MOCLDY     9   1  72 NW6       29.72R WCI  -1
THIEF RVR FALL   N/A    N/A N/A N/A MISG        N/A
CROOKSTON      LGT SNOW  12  10  92 N15       29.75R WCI  -4
FOSSTON        LGT SNOW  12   9  85 N9        29.68S WCI   0
DETROIT LAKES  LGT SNOW  23  23 100 SW3       29.64F
MOORHEAD       LGT SNOW  18  14  86 N17       29.70R WCI   2
PARK RAPIDS    CLOUDY    23  19  85 W7        29.61F WCI  15
MAHNOMEN       LGT SNOW  16  13  88 N14G20    29.66S WCI   1
$$
MNZ006-009>011-018-025>026-261100-
   North Central Minnesota

CITY           SKY/WX    TMP DP  RH WIND       PRES   REMARKS
BAUDETTE       LGT SNOW   9   3  77 NW13      29.69R WCI  -7
FLAG ISLAND    CLOUDY     7   0  72 NW8       29.69S WCI  -6
INTL FALLS     LGT SNOW  11   7  84 NW8       29.66S FOG     WCI  -1
WASKISH        LGT SNOW  12   9  85 NW5       29.68S WCI   4
BIG FORK       FLURRIES  16  12  86 N3        29.64F
LONGVILLE      CLOUDY    25  23  93 CALM      29.63S
GRAND RAPIDS   CLOUDY    21  18  88 CALM      29.64F
CRANE LAKE     LGT SNOW   9   7  92 CALM      29.67S
ORR            CLOUDY    10   7  85 CALM      29.62R
COOK           CLOUDY    12  10  92 CALM      29.63F
WALKER         CLOUDY    20  17  86 CALM      29.62F
$$
MNZ012-019>021-037-261100-
   Northeast Minnesota

CITY           SKY/WX    TMP DP  RH WIND       PRES   REMARKS
DULUTH         CLOUDY    25  22  88 SW9       29.62F WCI  15
ELY            CLOUDY    18  16  93 CALM      29.63S
HIBBING        CLOUDY    17  16  95 CALM      29.62F
EVELETH        CLOUDY    20  17  88 NW5       29.64S WCI  13
DULUTH HARBOR  FLURRIES  27  25  93 CALM      29.68F
TWO HARBORS    LGT SNOW  27  21  80 CALM      29.62F VSB 1
SILVER BAY     MIX PCPN  19  19 100 CALM      29.62F
GRAND MARAIS     N/A     26  18  71 VRB3      29.66
G MARAIS ARPRT CLOUDY    16  10  79 NW3       29.59S
$$
MNZ029>031-032-039>041-046>048-054>057-064-261100-
   West Central Minnesota

CITY           SKY/WX    TMP DP  RH WIND       PRES   REMARKS
FERGUS FALLS   FOG       19  19 100 CALM      29.71F VSB 1
WHEATON        FLURRIES  25  23  93 SW5       29.71S WCI  19
MORRIS         CLOUDY    27  25  93 CALM      29.68F
ALEXANDRIA     CLOUDY    25  23  92 SW8       29.67S WCI  16
ELBOW LAKE     LGT SNOW  22  22  98 W3        29.68F
WADENA         FOG       19  18  93 CALM      29.64S VSB 3/4
GLENWOOD       MOCLDY    25  23  93 W9        29.68R WCI  15
APPLETON       CLOUDY    27  23  86 W5        29.70F WCI  21
BENSON         CLOUDY    27  21  80 W6        29.71S WCI  20
ORTONVILLE       N/A     25  21  86 CALM      29.70S
MADISON        CLOUDY    28  25  86 W7        29.72S WCI  21
WILLMAR        FAIR      25  23  93 SW9       29.72R WCI  15
$$
MNZ033>034-036-042>043-049>051-058-059-261100-
   Central Minnesota

CITY           SKY/WX    TMP DP  RH WIND       PRES   REMARKS
ST CLOUD       CLOUDY    26  21  81 SW10      29.69F WCI  16
SAUK CENTRE    FAIR      26  23  87 SW7       29.67S WCI  19
PAYNESVILLE    CLOUDY    25  22  89 SW3       29.70S
AITKIN         CLOUDY    27  23  86 CALM      29.63F
PINE RIVER     CLOUDY    23  23 100 CALM      29.67F
BRAINERD       CLOUDY    23  22  96 CALM      29.65F
STAPLES        FOG       19  19 100 CALM      29.64F VSB 3/4
LONG PRAIRIE   MOCLDY    27  23  86 S3        29.66F
LITTLE FALLS   CLOUDY    28  23  80 S3        29.67F
LITCHFIELD     CLOUDY    25  21  86 CALM      29.71S
BUFFALO        CLOUDY    24  19  81 S5        29.73S WCI  18
MAPLE LAKE     CLEAR     25  22  89 S3        29.72S
HUTCHINSON     CLEAR     25  22  88 S6        29.72S WCI  18
$$
MNZ037-044-045-052-053-261100-
   East Central Minnesota

CITY           SKY/WX    TMP DP  RH WIND       PRES   REMARKS
PRINCETON      CLOUDY    27  21  80 S7        29.70S WCI  19
MORA           CLOUDY    27  23  86 SW8       29.70F WCI  18
CAMBRIDGE      CLOUDY    27  18  69 S5        29.69F WCI  21
RUSH CITY      CLOUDY    25  19  80 SW8       29.71F WCI  16
MOOSE LAKE     CLOUDY    27  23  86 SW7       29.65S WCI  19
HINCKLEY       CLOUDY    27  23  86 SW10      29.69S WCI  17
CLOQUET        CLOUDY    25  21  86 SW5       29.64S WCI  19
MCGREGOR       CLOUDY    27  25  93 CALM      29.64F
$$
MNZ071>073-080-081-089-090-097-098-261100-
   Southwest Minnesota

CITY           SKY/WX    TMP DP  RH WIND       PRES   REMARKS
MONTEVIDEO     MOCLDY    25  21  86 CALM      29.73R
GRANITE FALLS  CLEAR     25  22  88 SW7       29.73S WCI  17
CANBY          MOCLDY    27  23  84 SW8       29.72R WCI  19
REDWOOD FALLS  CLEAR     24  18  77 SW9       29.72F WCI  14
OLIVIA         CLEAR     25  21  86 SW7       29.71S WCI  17
PIPESTONE      CLEAR     18  14  86 SW5       29.72S WCI  11
WINDOM         CLEAR     21  18  86 SW10      29.73S WCI  10
WORTHINGTON    CLEAR     19  16  88 SW13      29.74S WCI   6
JACKSON        PTCLDY    19  18  93 SW8       29.75S WCI   9
TRACY          PTCLDY    24  20  87 SW12      29.72S WCI  13
SLAYTON        CLEAR     17  16  93 SW8       29.73R WCI   7
$$
MNZ065>067-074>077-082>085-091>093-261100-
   South Central Minnesota

CITY           SKY/WX    TMP DP  RH WIND       PRES   REMARKS
NEW ULM        CLEAR     21  18  86 SW7       29.74S WCI  13
ST JAMES       CLEAR     21  18  86 CALM      29.75F
FAIRMONT       CLEAR     18  14  84 S10       29.76F WCI   6
GLENCOE        PTCLDY    24  22  92 S5        29.72F WCI  18
FARIBAULT      PTCLDY    21  18  86 S6        29.75F WCI  14
OWATONNA       PTCLDY    25  18  74 S14       29.74F WCI  13
WASECA         CLEAR     23  18  80 S13       29.76F WCI  11
ALBERT LEA     CLEAR     25  18  74 S9        29.76F WCI  15
$$
MNZ078>079-086>088-094>096-261100-
   Southeast Minnesota

CITY           SKY/WX    TMP DP  RH WIND       PRES   REMARKS
ROCHESTER      PTCLDY    23  17  78 S15       29.76F WCI  10
RED WING       PTCLDY    27  16  63 SW9       29.76F WCI  17
STANTON        PTCLDY    23  17  77 S5        29.75S WCI  16
WINONA         CLOUDY    30  21  69 S3        29.81F
AUSTIN         CLEAR     21  18  86 S10       29.77F WCI  10
PRESTON        PTCLDY    24  17  75 S15       29.79F WCI  11
$$
ABBREVIATIONS USED IN REMARKS
   TC - TEMPERATURES IN CELSIUS
  WCI - WIND CHILL INDEX
   HX - HEAT INDEX
  VSB - VISIBILITY
$$




USA.gov is the U.S. government's official web portal to all federal, state and local government web resources and services.